Location: Loup Canal
(41.4930°N, 97.5670°W)
Time: 12:22:10
(UTC-06:00)

Daily predictions for brighter satellites

Satellite Brightness Start Highest point End
(mag) Time Altitude Azimuth Time Altitude Azimuth Time Altitude Azimuth
ASTEX 1 4.2 17:23:30 10° N 17:28:24 57° W 17:33:17 10° SSW
ATLAS 2AS CENTAUR R/B 3.3 17:20:46 10° NNW 17:28:36 49° NE 17:35:59 10° ESE
Meteor 1-5 Rocket 4.2 17:27:01 10° N 17:32:21 57° ENE 17:37:49 10° SSE
Thor Agena Rocket 3.9 17:29:05 10° NNE 17:34:07 48° E 17:39:10 10° S
Cosmos 1269 Rocket 4.4 17:29:00 10° NNW 17:34:19 75° WSW 17:39:36 10° S
Cosmos 1484 Rocket 4.1 17:36:12 10° ESE 17:38:44 18° ENE 17:41:16 10° NNE
Cosmos 2082 Rocket 3.7 17:38:07 10° NNE 17:41:18 15° NE 17:44:29 10° E
Cosmos 1833 Rocket 4.3 17:42:12 10° NNE 17:45:03 14° NE 17:47:38 11° ENE
CZ-2C R/B 4.4 17:41:29 10° N 17:45:49 54° WNW 17:50:11 10° SSW
Cosmos 2251 Rocket 3.9 17:40:54 10° N 17:46:01 43° ENE 17:51:04 10° SE
AQUARIUS 4.2 17:43:16 10° SSE 17:47:42 63° ENE 17:52:09 10° N
YAOGAN 1 2.6 17:43:28 10° SSE 17:47:42 57° ENE 17:51:58 10° N
SJ-7 4.5 17:48:51 10° SSE 17:53:01 61° ENE 17:57:13 10° N
SL-27 R/B 2.6 17:50:19 10° N 17:53:56 54° ENE 17:57:30 10° SSE
Cosmos 1500 4.4 17:53:06 10° NNE 17:56:02 20° ENE 17:58:57 10° ESE
CZ-2C R/B 2.4 17:53:43 10° SSE 17:58:39 83° ENE 18:03:47 10° N
Cosmos 1238 Rocket 2.4 17:56:05 10° SSE 17:58:54 42° E 18:01:45 10° NNE
SL-8 Rocket 3.9 17:53:18 10° N 17:59:30 80° E 18:05:39 10° S
Cosmos 158 Rocket 4.4 17:54:56 10° NNW 18:00:17 70° WSW 18:05:30 10° S
BREEZE M DEB (TANK) 4.1 17:51:01 10° SSW 18:01:13 38° SSE 18:04:05 16° E
CZ-4 R/B 4.4 17:58:18 10° SSE 18:02:22 61° ENE 18:06:29 10° N
Cosmos 2263 Rocket 4.3 18:00:39 10° W 18:04:50 21° NW 18:09:02 10° N
CRYOSAT 2 4.4 18:00:11 10° N 18:05:08 85° W 18:10:01 10° S
SMAP 3.1 18:00:40 10° SSE 18:05:19 85° WSW 18:10:00 10° NNW
Meteor 2-19 Rocket 4.4 17:59:19 10° N 18:05:25 80° E 18:11:28 10° S
OPS 8737 4.4 18:02:41 10° SSW 18:05:59 54° ESE 18:07:58 20° NE
Okean 1 3.8 18:03:18 10° SSE 18:07:04 38° E 18:10:51 10° NNE
Abrixas 4.1 18:06:23 10° NW 18:08:43 21° N 18:09:39 18° NNE
SKYMED 2 4.2 18:04:45 10° NNE 18:08:47 36° E 18:12:47 10° SSE
Cosmos 1455 Rocket 3.0 18:04:49 10° N 18:09:11 62° E 18:13:33 10° SSE
Cosmos 2366 rocket 4.0 18:03:50 10° N 18:10:11 71° E 18:16:29 10° SSE
COSMOS 2441 4.4 18:07:23 10° SSE 18:12:09 60° ENE 18:16:59 10° N
OTV 4 2.9 18:10:35 10° WSW 18:12:50 19° SSW 18:15:06 10° SSE
Cosmos 2218 Rocket 4.0 18:07:09 10° N 18:13:30 85° E 18:19:43 10° S
Cosmos 1959 Rocket 4.5 18:08:46 10° N 18:14:59 87° E 18:21:14 10° S
Meteor 1-18 Rocket 4.2 18:10:17 10° S 18:15:52 72° E 18:21:36 10° NNE
Cosmos 1812 2.6 18:15:16 10° S 18:19:07 79° E 18:22:59 10° N
GEOS 3 Rocket 3.7 18:18:20 10° ESE 18:23:16 52° NE 18:28:14 10° NNW
Cosmos 1346 Rocket 3.2 18:21:46 10° SSE 18:25:25 39° E 18:26:53 27° NE
Cosmos 1809 Rocket 4.5 18:22:17 10° N 18:28:20 55° ENE 18:34:19 10° SSE
Cosmos 1844 Rocket 3.4 18:24:42 10° SW 18:30:08 52° WNW 18:35:39 10° NNE
SL-8 R/B 3.6 18:32:13 10° SW 18:36:58 75° SSE 18:38:57 35° ENE
CZ-3B DEB 2.4 18:33:37 10° WSW 18:37:28 72° NW 18:43:53 20° NE
CZ-4 R/B 3.8 18:34:10 10° SSW 18:37:42 26° W 18:41:14 10° NW
MSX 4.1 18:32:39 10° S 18:38:22 70° WSW 18:44:08 10° NNW
COSMOS 2487 3.7 18:37:55 10° N 18:39:54 27° NNE 18:39:54 27° NNE
Cosmos 1844 4.3 18:38:26 10° SW 18:43:51 54° WNW 18:49:11 11° NNE
Cosmos 1821 Rocket 4.2 18:39:33 10° N 18:45:17 41° ENE 18:50:58 10° SE
Cosmos 2297 3.9 18:40:10 10° S 18:45:31 46° ESE 18:47:18 35° ENE
Cosmos 1975 3.1 18:45:57 10° NNW 18:50:00 68° W 18:54:00 10° S
USA 234 4.2 18:48:20 18° NNE 18:52:39 38° NNW 18:58:34 10° W
IDEFIX/ARIANE 42P 4.5 18:50:10 10° SSW 18:54:44 31° W 18:59:19 10° NW
COSMO-SKYMED 1 2.9 18:53:03 13° N 18:56:53 65° WNW 19:01:10 10° SSW
Meteor 2-21 4.4 18:52:49 10° N 18:59:02 88° W 19:05:11 10° S
Cosmos 2278 Rocket 2.5 18:55:17 10° SW 19:00:53 64° WNW 19:04:53 20° NNE
Tiangong 1 3.0 19:00:05 10° SW 19:01:34 22° SSW 19:01:34 22° SSW
Meteor 1-19 Rocket 4.2 18:58:08 10° S 19:03:48 64° E 19:06:35 31° NNE
NOSS 3-4 (A) 4.3 18:57:50 10° NNW 19:04:10 36° NE 19:04:35 36° NE
BREEZE M DEB (TANK) 3.7 19:00:28 10° NW 19:04:11 51° NNE 19:06:13 40° ENE
NOSS 3-4 (C) 4.3 18:57:56 10° NNW 19:04:15 36° NE 19:04:39 36° NE
ISS -1.2 19:02:26 10° WNW 19:04:42 21° NNW 19:04:42 21° NNW
Nadezhda 3 Rocket 3.9 19:01:02 10° S 19:07:14 87° W 19:13:32 10° N
NOSS 3-3 (A) 4.2 19:04:44 10° SW 19:10:55 68° NW 19:14:23 30° NNE
NOSS 3-3 (C) 4.2 19:04:50 10° SW 19:11:00 69° NW 19:14:27 30° NNE
Genesis I 3.8 19:09:00 10° NW 19:11:58 49° NW 19:11:58 49° NW
ATLAS 2AS CENTAUR R/B 4.0 19:12:07 10° NW 19:19:36 44° WSW 19:26:34 10° S
Meteor 1-13 Rocket 4.3 19:14:20 10° SSW 19:19:59 77° W 19:24:13 19° N
Meteor 2-14 Rocket 4.5 19:15:49 10° N 19:21:59 79° W 19:28:07 10° S
Cosmos 2082 Rocket 2.0 19:20:33 10° NNW 19:26:15 86° ENE 19:27:09 65° SSE
Cosmos 1833 Rocket 2.6 19:24:16 10° NNW 19:29:26 72° NNE 19:29:26 72° NNE
Timation 1 Rocket 4.2 19:27:39 10° SSW 19:33:37 90° NW 19:34:03 78° NNE
METEOR-M 4.4 19:30:48 10° S 19:36:04 65° WSW 19:41:25 10° NNW
Cosmos 921 Rocket 4.3 19:35:46 10° SSW 19:38:26 36° SW 19:38:26 36° SW
FALCON 9 R/B 3.3 19:32:54 10° WSW 19:50:04 54° S 19:51:03 51° SSE
Meteor 2-4 Rocket 4.3 19:46:27 10° SSW 19:50:25 48° SW 19:50:25 48° SW
Cosmos 1934 Rocket 4.5 20:01:07 10° NNW 20:07:10 57° W 20:13:15 10° SSW
